User: anonymous   Login
Location: San Gennaro Vesuviano
(40.8833°N, 14.5333°E)
Time: 00:49:01
(UTC+00:00)
Language:

IRIDIUM 106 - Orbit

View from above orbital plane
View from above orbital plane
View from above satellite
View from above satellite

Ground track
Ground track

The orbit data is extracted from the following two-line orbital elements,

1 41917U 17003A   21169.43942438  .00000097  00000-0  27724-4 0  9991
2 41917  86.3970 131.0918 0002480  93.7174 266.4306 14.34215211231664
Epoch (UTC): 18 June 2021 10:32:46
Eccentricity: 0.0002480
inclination: 86.3970°
perigee height: 776 km
apogee height: 779 km
right ascension of ascending node: 131.0918°
argument of perigee: 93.7174°
revolutions per day: 14.34215211
mean anomaly at epoch: 266.4306°
orbit number at epoch: 23166

The dashed part of the orbit path shows where the satellite is in the earth's shadow,  

DLR